Regional Weather Roundup
Issued by NWS Cleveland, OH

Home | Current Version | Previous Version | Text Only | Print | Product List | Glossary Off
Versions: 1 2 3 4 5 6 7 8 9 10 11 12 13 14 15 16 17 18 19 20 21 22 23 24 25 26 27 28 29 30 31 32 33 34 35 36 37 38 39 40 41 42 43 44 45 46 47 48 49 50

000
ASUS41 KCLE 292112
RWRCLE
OHIO REGIONAL WEATHER ROUNDUP
NATIONAL WEATHER SERVICE WILMINGTON, OH
500 PM EDT THU SEP 29 2016

NOTE: "FAIR" INDICATES FEW OR NO CLOUDS BELOW 12,000 FEET WITH NO
SIGNIFICANT WEATHER AND/OR OBSTRUCTIONS TO VISIBILITY.

OHZ001>008-015>018-024>027-034-035-043-044-292200-
   NORTHWEST OHIO

CITY           SKY/WX    TMP DP  RH WIND       PRES   REMARKS
DEFIANCE       FAIR      67  55  65 NE9       30.12S
FINDLAY        RAIN      62  58  86 N10       30.10S FOG
TOLEDO EXPRESS LGT RAIN  61  61 100 N10       30.12F FOG
TOLEDO EXEC    LGT RAIN  63  62  97 NE9G21    30.12S FOG
LIMA           CLOUDY    64  56  75 NE13      30.10R
$$

OHZ009>014-019>023-028>033-038-089-292200-
   NORTHEAST OHIO

CITY           SKY/WX    TMP DP  RH WIND       PRES   REMARKS
CLE-HOPKINS    TSTM      63  58  83 E10       30.15R
CLE-LAKEFRONT  CLOUDY    63  60  90 NE9       30.11S FOG
CUY CO. ARPT   CLOUDY    63  63 100 E13       30.12F FOG
LORAIN-ELYRIA  NOT AVBL
ASHTABULA      CLOUDY    63  60  90 VRB5      30.16S
AKRON-CANTON   TSTM      60  58  92 CALM      30.12R FOG
WOOSTER        LGT RAIN  62  60  93 NE15      30.10S
MANSFIELD      CLOUDY    60  60 100 NW5       30.10S
YOUNGSTOWN     CLOUDY    65  59  81 E9G20     30.11S
$$

OHZ042-051>053-060>062-070>072-077>081-292200-
  SOUTHWEST OHIO

CITY           SKY/WX    TMP DP  RH WIND       PRES   REMARKS
CINC-COVINGTON PTSUNNY   64  53  67 E12       30.07R
CINC-LUNKEN    PTSUNNY   61  57  87 CALM      30.08S
HAMILTON       CLOUDY    65  54  67 N6        30.08S
DAYTON         LGT RAIN  59  55  87 N10       30.08S
WRIGHT-PAT AFB PTSUNNY   60  58  94 VRB3      30.07R
DAYTON GENERAL PTSUNNY   64  53  67 NE5       30.06S
WILMINGTON     PTSUNNY   61  54  77 NE7       30.05F
$$

OHZ036-037-039>041-045>050-054>059-063>069-073>076-082>088-292200-
  CENTRAL AND SOUTHEAST OHIO

CITY           SKY/WX    TMP DP  RH WIND       PRES   REMARKS
COLUMBUS       CLOUDY    63  62  97 N7        30.06S
OSU AIRPORT    LGT RAIN  59  57  93 NW8       30.08S
BOLTON FIELD   PTSUNNY   61  54  77 NW8       30.08R
RICKENBACK AFB CLOUDY    60  58  91 NW9       30.06R
NEWARK         PTSUNNY   63  60  90 NE5       30.04S
MARION         RAIN      59  57  93 NE15      30.09F FOG
LANCASTER      PTSUNNY   64  61  90 N3        30.05S
ZANESVILLE     FAIR      63  61  93 NE8       30.03F
NEW PHILLY     FAIR      62  61  96 N6        30.07F
$$




USA.gov is the U.S. government's official web portal to all federal, state and local government web resources and services.